Time,TemperatureF,DewpointF,PressureIn,WindDirection,WindDirectionDegrees,WindSpeedMPH,WindSpeedGustMPH,Humidity,HourlyPrecipIn,Conditions,Clouds,dailyrainin,SoftwareType,DateUTC
2013-05-25 00:01:00,48.8,25.0,29.73,ENE,67,0.0,3.0,39,0.00,,SKC,0.00,VWS V14.00,2013-05-25 06:01:00,
2013-05-25 00:06:00,48.7,26.6,29.73,ENE,67,0.0,0.0,42,0.00,,SKC,0.00,VWS V14.00,2013-05-25 06:06:00,
2013-05-25 00:11:00,48.6,26.0,29.73,ENE,67,0.0,1.0,41,0.00,,SKC,0.00,VWS V14.00,2013-05-25 06:11:00,
2013-05-25 00:16:00,48.5,25.3,29.73,ENE,67,0.0,1.0,40,0.00,,SKC,0.00,VWS V14.00,2013-05-25 06:16:00,
2013-05-25 00:22:00,48.4,25.8,29.73,ENE,67,0.0,1.0,41,0.00,,SKC,0.00,VWS V14.00,2013-05-25 06:22:00,
2013-05-25 00:27:00,48.2,25.0,29.73,ENE,66,0.0,3.0,40,0.00,,SKC,0.00,VWS V14.00,2013-05-25 06:27:00,
2013-05-25 00:32:00,48.1,25.5,29.73,ENE,66,0.0,3.0,41,0.00,,SKC,0.00,VWS V14.00,2013-05-25 06:32:00,
2013-05-25 00:37:00,48.0,26.0,29.73,ENE,66,0.0,0.0,42,0.00,,SKC,0.00,VWS V14.00,2013-05-25 06:37:00,
2013-05-25 00:42:00,47.9,25.4,29.74,ENE,66,0.0,3.0,41,0.00,,SKC,0.00,VWS V14.00,2013-05-25 06:42:00,
2013-05-25 00:48:00,47.7,26.3,29.73,ENE,66,0.0,3.0,43,0.00,,SKC,0.00,VWS V14.00,2013-05-25 06:48:00,
2013-05-25 00:53:00,47.4,24.3,29.73,ENE,66,1.0,3.0,40,0.00,,SKC,0.00,VWS V14.00,2013-05-25 06:53:00,
2013-05-25 00:58:00,47.4,24.3,29.74,ENE,66,0.0,3.0,40,0.00,,SKC,0.00,VWS V14.00,2013-05-25 06:58:00,
2013-05-25 01:03:00,47.3,26.0,29.74,ENE,66,0.0,0.0,43,0.00,,SKC,0.00,VWS V14.00,2013-05-25 07:03:00,
2013-05-25 01:08:00,46.9,26.1,29.74,ENE,66,2.0,2.0,44,0.00,,SKC,0.00,VWS V14.00,2013-05-25 07:08:00,
2013-05-25 01:14:00,46.4,25.1,29.74,ENE,66,0.0,2.0,43,0.00,,SKC,0.00,VWS V14.00,2013-05-25 07:14:00,
2013-05-25 01:19:00,46.2,25.5,29.74,ENE,66,0.0,2.0,44,0.00,,SKC,0.00,VWS V14.00,2013-05-25 07:19:00,
2013-05-25 01:24:00,46.4,25.7,29.74,ENE,66,0.0,3.0,44,0.00,,SKC,0.00,VWS V14.00,2013-05-25 07:24:00,
2013-05-25 01:29:00,46.3,25.0,29.74,ENE,66,0.0,3.0,43,0.00,,SKC,0.00,VWS V14.00,2013-05-25 07:29:00,
2013-05-25 01:35:00,45.8,26.7,29.74,ENE,66,0.0,2.0,47,0.00,,SKC,0.00,VWS V14.00,2013-05-25 07:35:00,
2013-05-25 01:40:00,45.4,26.4,29.74,ENE,66,2.0,2.0,47,0.00,,SKC,0.00,VWS V14.00,2013-05-25 07:40:00,
2013-05-25 01:45:00,44.9,26.4,29.74,ENE,66,0.0,2.0,48,0.00,,SKC,0.00,VWS V14.00,2013-05-25 07:45:00,
2013-05-25 01:50:00,44.5,25.5,29.74,ENE,66,1.0,2.0,47,0.00,,SKC,0.00,VWS V14.00,2013-05-25 07:50:00,
2013-05-25 01:55:00,44.0,25.6,29.73,ENE,66,0.0,2.0,48,0.00,,SKC,0.00,VWS V14.00,2013-05-25 07:55:00,
2013-05-25 02:01:00,43.8,27.3,29.74,ENE,66,0.0,2.0,52,0.00,,SKC,0.00,VWS V14.00,2013-05-25 08:01:00,
2013-05-25 02:06:00,43.6,25.2,29.73,ENE,66,0.0,3.0,48,0.00,,SKC,0.00,VWS V14.00,2013-05-25 08:06:00,
2013-05-25 02:11:00,43.4,27.0,29.73,ENE,66,0.0,3.0,52,0.00,,SKC,0.00,VWS V14.00,2013-05-25 08:11:00,
2013-05-25 02:16:00,43.2,25.4,29.73,ENE,66,0.0,3.0,49,0.00,,SKC,0.00,VWS V14.00,2013-05-25 08:16:00,
2013-05-25 02:22:00,43.5,25.6,29.73,ENE,66,0.0,3.0,49,0.00,,SKC,0.00,VWS V14.00,2013-05-25 08:22:00,
2013-05-25 02:27:00,43.4,26.0,29.73,ENE,66,0.0,3.0,50,0.00,,SKC,0.00,VWS V14.00,2013-05-25 08:27:00,
2013-05-25 02:32:00,43.2,27.2,29.73,ENE,66,0.0,3.0,53,0.00,,SKC,0.00,VWS V14.00,2013-05-25 08:32:00,
2013-05-25 02:37:00,42.4,27.4,29.74,ENE,66,0.0,2.0,55,0.00,,SKC,0.00,VWS V14.00,2013-05-25 08:37:00,
2013-05-25 02:43:00,41.7,27.2,29.74,ENE,66,0.0,2.0,56,0.00,,SKC,0.00,VWS V14.00,2013-05-25 08:43:00,
2013-05-25 02:48:00,41.4,25.1,29.74,ENE,66,0.0,2.0,52,0.00,,SKC,0.00,VWS V14.00,2013-05-25 08:48:00,
2013-05-25 02:53:00,41.3,26.4,29.74,ENE,66,0.0,2.0,55,0.00,,SKC,0.00,VWS V14.00,2013-05-25 08:53:00,
2013-05-25 02:58:00,41.2,25.4,29.74,ENE,66,0.0,2.0,53,0.00,,SKC,0.00,VWS V14.00,2013-05-25 08:58:00,
2013-05-25 03:03:00,41.3,25.9,29.74,ENE,66,0.0,0.0,54,0.00,,SKC,0.00,VWS V14.00,2013-05-25 09:03:00,
2013-05-25 03:09:00,41.3,25.9,29.74,ENE,66,0.0,3.0,54,0.00,,SKC,0.00,VWS V14.00,2013-05-25 09:09:00,
2013-05-25 03:14:00,41.1,25.7,29.74,ENE,66,0.0,3.0,54,0.00,,SKC,0.00,VWS V14.00,2013-05-25 09:14:00,
2013-05-25 03:19:00,40.7,26.2,29.74,ENE,66,0.0,3.0,56,0.00,,SKC,0.00,VWS V14.00,2013-05-25 09:19:00,
2013-05-25 03:24:00,40.2,26.6,29.75,ENE,66,1.0,3.0,58,0.00,,SKC,0.00,VWS V14.00,2013-05-25 09:24:00,
2013-05-25 03:29:00,40.2,26.6,29.75,ENE,66,0.0,3.0,58,0.00,,SKC,0.00,VWS V14.00,2013-05-25 09:29:00,
2013-05-25 03:35:00,40.2,24.9,29.75,ENE,66,0.0,1.0,54,0.00,,SKC,0.00,VWS V14.00,2013-05-25 09:35:00,
2013-05-25 03:40:00,40.5,26.9,29.75,ENE,66,0.0,3.0,58,0.00,,SKC,0.00,VWS V14.00,2013-05-25 09:40:00,
2013-05-25 03:45:00,40.3,26.7,29.75,ENE,66,0.0,3.0,58,0.00,,SKC,0.00,VWS V14.00,2013-05-25 09:45:00,
2013-05-25 03:50:00,39.7,27.0,29.75,ENE,66,0.0,3.0,60,0.00,,SKC,0.00,VWS V14.00,2013-05-25 09:50:00,
2013-05-25 03:56:00,39.6,25.6,29.75,ENE,66,0.0,3.0,57,0.00,,SKC,0.00,VWS V14.00,2013-05-25 09:56:00,
2013-05-25 04:01:00,39.7,26.1,29.75,ENE,66,1.0,3.0,58,0.00,,SKC,0.00,VWS V14.00,2013-05-25 10:01:00,
2013-05-25 04:06:00,39.4,26.7,29.76,ENE,66,1.0,2.0,60,0.00,,SKC,0.00,VWS V14.00,2013-05-25 10:06:00,
2013-05-25 04:11:00,38.9,27.8,29.76,ENE,66,0.0,2.0,64,0.00,,SKC,0.00,VWS V14.00,2013-05-25 10:11:00,
2013-05-25 04:16:00,38.9,25.8,29.76,ENE,66,0.0,2.0,59,0.00,,SKC,0.00,VWS V14.00,2013-05-25 10:16:00,
2013-05-25 04:22:00,38.9,26.6,29.76,ENE,66,1.0,2.0,61,0.00,,SKC,0.00,VWS V14.00,2013-05-25 10:22:00,
2013-05-25 04:27:00,38.6,27.5,29.76,ENE,66,1.0,3.0,64,0.00,,SKC,0.00,VWS V14.00,2013-05-25 10:27:00,
2013-05-25 04:32:00,38.3,26.0,29.77,ENE,66,0.0,3.0,61,0.00,,SKC,0.00,VWS V14.00,2013-05-25 10:32:00,
2013-05-25 04:37:00,38.5,25.8,29.77,ENE,66,0.0,1.0,60,0.00,,SKC,0.00,VWS V14.00,2013-05-25 10:37:00,
2013-05-25 04:43:00,38.7,26.0,29.77,ENE,66,0.0,1.0,60,0.00,,SKC,0.00,VWS V14.00,2013-05-25 10:43:00,
2013-05-25 04:48:00,38.6,28.2,29.77,ENE,66,0.0,3.0,66,0.00,,SKC,0.00,VWS V14.00,2013-05-25 10:48:00,
2013-05-25 04:53:00,38.3,27.2,29.77,ENE,66,1.0,3.0,64,0.00,,SKC,0.00,VWS V14.00,2013-05-25 10:53:00,
2013-05-25 04:58:00,38.3,26.4,29.78,ENE,66,0.0,3.0,62,0.00,,SKC,0.00,VWS V14.00,2013-05-25 10:58:00,
2013-05-25 05:03:00,38.2,27.5,29.77,ENE,66,2.0,2.0,65,0.00,,SKC,0.00,VWS V14.00,2013-05-25 11:03:00,
2013-05-25 05:09:00,38.0,26.1,29.78,ENE,66,0.0,3.0,62,0.00,,SKC,0.00,VWS V14.00,2013-05-25 11:09:00,
2013-05-25 05:14:00,38.1,26.2,29.78,ENE,66,0.0,3.0,62,0.00,,SKC,0.00,VWS V14.00,2013-05-25 11:14:00,
2013-05-25 05:19:00,38.2,27.1,29.78,ENE,66,1.0,3.0,64,0.00,,SKC,0.00,VWS V14.00,2013-05-25 11:19:00,
2013-05-25 05:24:00,37.9,27.2,29.78,ENE,66,0.0,3.0,65,0.00,,SKC,0.00,VWS V14.00,2013-05-25 11:24:00,
2013-05-25 05:29:00,37.8,27.5,29.79,ENE,66,0.0,3.0,66,0.00,,SKC,0.00,VWS V14.00,2013-05-25 11:29:00,
2013-05-25 05:35:00,37.6,26.2,29.79,ENE,66,0.0,2.0,63,0.00,,SKC,0.00,VWS V14.00,2013-05-25 11:35:00,
2013-05-25 05:40:00,37.7,26.3,29.79,ENE,66,2.0,3.0,63,0.00,,SKC,0.00,VWS V14.00,2013-05-25 11:40:00,
2013-05-25 05:45:00,37.4,26.7,29.79,ENE,66,0.0,3.0,65,0.00,,SKC,0.00,VWS V14.00,2013-05-25 11:45:00,
2013-05-25 05:50:00,37.4,26.0,29.79,ENE,66,0.0,3.0,63,0.00,,SKC,0.00,VWS V14.00,2013-05-25 11:50:00,
2013-05-25 05:55:00,37.5,26.5,29.79,ENE,66,1.0,3.0,64,0.00,,SKC,0.00,VWS V14.00,2013-05-25 11:55:00,
2013-05-25 06:01:00,37.7,27.0,29.80,ENE,66,0.0,3.0,65,0.00,,SKC,0.00,VWS V14.00,2013-05-25 12:01:00,
2013-05-25 06:06:00,37.7,26.6,29.80,ENE,66,0.0,2.0,64,0.00,,SKC,0.00,VWS V14.00,2013-05-25 12:06:00,
2013-05-25 06:11:00,37.8,25.6,29.80,ENE,66,0.0,2.0,61,0.00,,SKC,0.00,VWS V14.00,2013-05-25 12:11:00,
2013-05-25 06:16:00,38.0,26.1,29.80,ENE,66,0.0,2.0,62,0.00,,SKC,0.00,VWS V14.00,2013-05-25 12:16:00,
2013-05-25 06:22:00,37.9,27.2,29.81,ENE,66,0.0,2.0,65,0.00,,SKC,0.00,VWS V14.00,2013-05-25 12:22:00,
2013-05-25 06:27:00,37.5,26.5,29.81,ENE,66,0.0,3.0,64,0.00,,SKC,0.00,VWS V14.00,2013-05-25 12:27:00,
2013-05-25 06:32:00,38.1,25.9,29.81,ENE,66,0.0,3.0,61,0.00,,SKC,0.00,VWS V14.00,2013-05-25 12:32:00,
2013-05-25 06:37:00,38.4,27.7,29.81,ENE,66,0.0,1.0,65,0.00,,SKC,0.00,VWS V14.00,2013-05-25 12:37:00,
2013-05-25 06:42:00,38.2,26.7,29.82,ENE,66,0.0,2.0,63,0.00,,SKC,0.00,VWS V14.00,2013-05-25 12:42:00,
2013-05-25 06:48:00,38.0,26.5,29.82,ENE,66,0.0,3.0,63,0.00,,SKC,0.00,VWS V14.00,2013-05-25 12:48:00,
2013-05-25 06:53:00,38.0,27.3,29.82,ENE,66,0.0,3.0,65,0.00,,SKC,0.00,VWS V14.00,2013-05-25 12:53:00,
2013-05-25 06:58:00,37.9,27.2,29.82,ENE,66,1.0,3.0,65,0.00,,SKC,0.00,VWS V14.00,2013-05-25 12:58:00,
2013-05-25 07:03:00,37.9,27.9,29.82,ENE,66,0.0,0.0,67,0.00,,SKC,0.00,VWS V14.00,2013-05-25 13:03:00,
2013-05-25 07:09:00,38.0,27.3,29.82,ENE,66,0.0,2.0,65,0.00,,SKC,0.00,VWS V14.00,2013-05-25 13:09:00,
2013-05-25 07:14:00,38.3,27.6,29.82,ENE,66,3.0,4.0,65,0.00,,SKC,0.00,VWS V14.00,2013-05-25 13:14:00,
2013-05-25 07:19:00,38.9,28.1,29.82,ENE,66,0.0,4.0,65,0.00,,SKC,0.00,VWS V14.00,2013-05-25 13:19:00,
2013-05-25 07:25:00,39.0,28.6,29.82,ENE,66,0.0,4.0,66,0.00,,SKC,0.00,VWS V14.00,2013-05-25 13:25:00,
2013-05-25 07:30:00,39.3,28.9,29.82,ENE,66,2.0,4.0,66,0.00,,SKC,0.00,VWS V14.00,2013-05-25 13:30:00,
2013-05-25 07:35:00,39.8,28.6,29.82,ENE,66,0.0,0.0,64,0.00,,SKC,0.00,VWS V14.00,2013-05-25 13:35:00,
2013-05-25 07:40:00,40.1,27.8,29.82,ENE,66,0.0,0.0,61,0.00,,SKC,0.00,VWS V14.00,2013-05-25 13:40:00,
2013-05-25 07:45:00,40.5,28.1,29.82,ENE,66,0.0,0.0,61,0.00,,SKC,0.00,VWS V14.00,2013-05-25 13:45:00,
2013-05-25 07:51:00,41.2,30.3,29.82,ENE,66,0.0,2.0,65,0.00,,SKC,0.00,VWS V14.00,2013-05-25 13:51:00,
2013-05-25 07:56:00,42.0,28.7,29.82,ENE,66,0.0,2.0,59,0.00,,SKC,0.00,VWS V14.00,2013-05-25 13:56:00,
2013-05-25 08:01:00,43.2,29.4,29.82,NE,49,0.0,2.0,58,0.00,,SKC,0.00,VWS V14.00,2013-05-25 14:01:00,
2013-05-25 08:07:00,44.6,28.5,29.82,ENE,70,0.0,0.0,53,0.00,,SKC,0.00,VWS V14.00,2013-05-25 14:07:00,
2013-05-25 08:12:00,46.0,28.4,29.81,ENE,70,0.0,0.0,50,0.00,,SKC,0.00,VWS V14.00,2013-05-25 14:12:00,
2013-05-25 08:17:00,47.7,29.5,29.81,ENE,70,0.0,0.0,49,0.00,,SKC,0.00,VWS V14.00,2013-05-25 14:17:00,
2013-05-25 08:22:00,49.1,28.7,29.81,ENE,70,0.0,0.0,45,0.00,,SKC,0.00,VWS V14.00,2013-05-25 14:22:00,
2013-05-25 08:27:00,50.5,28.9,29.81,ENE,70,0.0,0.0,43,0.00,,SKC,0.00,VWS V14.00,2013-05-25 14:27:00,
2013-05-25 08:33:00,52.1,27.9,29.81,ENE,70,0.0,1.0,39,0.00,,SKC,0.00,VWS V14.00,2013-05-25 14:33:00,
2013-05-25 08:38:00,53.5,27.2,29.81,ENE,70,0.0,1.0,36,0.00,,SKC,0.00,VWS V14.00,2013-05-25 14:38:00,
2013-05-25 08:43:00,54.5,28.1,29.81,ENE,70,0.0,1.0,36,0.00,,SKC,0.00,VWS V14.00,2013-05-25 14:43:00,
2013-05-25 08:48:00,55.5,27.6,29.81,ENE,70,0.0,1.0,34,0.00,,SKC,0.00,VWS V14.00,2013-05-25 14:48:00,
2013-05-25 08:53:00,56.5,27.0,29.80,ENE,70,0.0,1.0,32,0.00,,SKC,0.00,VWS V14.00,2013-05-25 14:53:00,
2013-05-25 08:59:00,57.5,28.6,29.81,ENE,70,0.0,1.0,33,0.00,,SKC,0.00,VWS V14.00,2013-05-25 14:59:00,
2013-05-25 09:04:00,58.1,27.6,29.80,ENE,70,0.0,1.0,31,0.00,,SKC,0.00,VWS V14.00,2013-05-25 15:04:00,
2013-05-25 09:09:00,58.8,27.5,29.80,ENE,70,2.0,2.0,30,0.00,,SKC,0.00,VWS V14.00,2013-05-25 15:09:00,
2013-05-25 09:14:00,59.7,30.6,29.80,ENE,70,0.0,2.0,33,0.00,,SKC,0.00,VWS V14.00,2013-05-25 15:14:00,
2013-05-25 09:20:00,60.5,28.1,29.80,ENE,70,0.0,2.0,29,0.00,,SKC,0.00,VWS V14.00,2013-05-25 15:20:00,
2013-05-25 09:25:00,61.6,28.2,29.80,ENE,70,0.0,2.0,28,0.00,,SKC,0.00,VWS V14.00,2013-05-25 15:25:00,
2013-05-25 09:30:00,62.6,29.9,29.80,ENE,72,2.0,4.0,29,0.00,,SKC,0.00,VWS V14.00,2013-05-25 15:30:00,
2013-05-25 09:35:00,63.4,29.8,29.80,South,177,0.0,5.0,28,0.00,,SKC,0.00,VWS V14.00,2013-05-25 15:35:00,
2013-05-25 09:40:00,64.0,29.4,29.79,South,182,0.0,6.0,27,0.00,,SKC,0.00,VWS V14.00,2013-05-25 15:40:00,
2013-05-25 09:46:00,64.6,29.9,29.79,South,182,0.0,6.0,27,0.00,,SKC,0.00,VWS V14.00,2013-05-25 15:46:00,
2013-05-25 09:51:00,65.6,28.9,29.79,South,182,0.0,6.0,25,0.00,,SKC,0.00,VWS V14.00,2013-05-25 15:51:00,
2013-05-25 09:56:00,66.7,29.8,29.79,South,182,0.0,6.0,25,0.00,,SKC,0.00,VWS V14.00,2013-05-25 15:56:00,
2013-05-25 10:01:00,67.5,27.4,29.79,South,182,0.0,6.0,22,0.00,,SKC,0.00,VWS V14.00,2013-05-25 16:01:00,
2013-05-25 10:06:00,68.3,26.9,29.79,South,181,0.0,3.0,21,0.00,,SKC,0.00,VWS V14.00,2013-05-25 16:06:00,
2013-05-25 10:12:00,69.3,31.0,29.79,South,181,0.0,3.0,24,0.00,,SKC,0.00,VWS V14.00,2013-05-25 16:12:00,
2013-05-25 10:17:00,70.1,33.7,29.78,West,267,2.0,5.0,26,0.00,,SKC,0.00,VWS V14.00,2013-05-25 16:17:00,
2013-05-25 10:22:00,70.4,27.5,29.78,SSW,208,5.0,6.0,20,0.00,,SKC,0.00,VWS V14.00,2013-05-25 16:22:00,
2013-05-25 10:27:00,70.6,31.0,29.78,SW,227,3.0,6.0,23,0.00,,SKC,0.00,VWS V14.00,2013-05-25 16:27:00,
2013-05-25 10:33:00,71.0,28.0,29.77,SW,234,0.0,6.0,20,0.00,,SKC,0.00,VWS V14.00,2013-05-25 16:33:00,
2013-05-25 10:38:00,71.0,30.3,29.77,SW,234,3.0,6.0,22,0.00,,SKC,0.00,VWS V14.00,2013-05-25 16:38:00,
2013-05-25 10:43:00,70.8,27.8,29.77,South,179,5.0,7.0,20,0.00,,SKC,0.00,VWS V14.00,2013-05-25 16:43:00,
2013-05-25 10:48:00,71.0,28.0,29.78,SW,229,5.0,7.0,20,0.00,,SKC,0.00,VWS V14.00,2013-05-25 16:48:00,
2013-05-25 10:53:00,71.3,29.4,29.78,SW,225,0.0,7.0,21,0.00,,SKC,0.00,VWS V14.00,2013-05-25 16:53:00,
2013-05-25 10:59:00,71.7,24.6,29.77,SSE,167,0.0,7.0,17,0.00,,SKC,0.00,VWS V14.00,2013-05-25 16:59:00,
2013-05-25 11:04:00,72.0,27.5,29.77,SSE,153,5.0,6.0,19,0.00,,SKC,0.00,VWS V14.00,2013-05-25 17:04:00,
2013-05-25 11:09:00,72.0,31.1,29.78,SW,215,4.0,7.0,22,0.00,,SKC,0.00,VWS V14.00,2013-05-25 17:09:00,
2013-05-25 11:14:00,72.2,26.4,29.78,SSE,147,4.0,7.0,18,0.00,,SKC,0.00,VWS V14.00,2013-05-25 17:14:00,
2013-05-25 11:20:00,72.3,25.1,29.78,SW,227,3.0,11.0,17,0.00,,SKC,0.00,VWS V14.00,2013-05-25 17:20:00,
2013-05-25 11:25:00,72.1,24.9,29.78,SSW,200,1.0,11.0,17,0.00,,SKC,0.00,VWS V14.00,2013-05-25 17:25:00,
2013-05-25 11:30:00,72.0,21.9,29.78,SW,214,3.0,11.0,15,0.00,,SKC,0.00,VWS V14.00,2013-05-25 17:30:00,
2013-05-25 11:35:00,71.9,26.1,29.78,South,178,2.0,9.0,18,0.00,,SKC,0.00,VWS V14.00,2013-05-25 17:35:00,
2013-05-25 11:40:00,72.1,27.6,29.78,WSW,242,1.0,9.0,19,0.00,,SKC,0.00,VWS V14.00,2013-05-25 17:40:00,
2013-05-25 11:46:00,72.2,23.5,29.78,South,173,5.0,9.0,16,0.00,,SKC,0.00,VWS V14.00,2013-05-25 17:46:00,
2013-05-25 11:51:00,72.3,30.2,29.78,SSW,211,3.0,9.0,21,0.00,,SKC,0.00,VWS V14.00,2013-05-25 17:51:00,
2013-05-25 11:56:00,72.5,26.6,29.78,West,275,0.0,9.0,18,0.00,,SKC,0.00,VWS V14.00,2013-05-25 17:56:00,
2013-05-25 12:01:00,72.8,24.0,29.77,West,263,3.0,12.0,16,0.00,,SKC,0.00,VWS V14.00,2013-05-25 18:01:00,
2013-05-25 12:07:00,72.8,25.5,29.77,West,261,3.0,4.0,17,0.00,,SKC,0.00,VWS V14.00,2013-05-25 18:07:00,
2013-05-25 12:12:00,73.2,28.5,29.78,SW,215,6.0,6.0,19,0.00,,SKC,0.00,VWS V14.00,2013-05-25 18:12:00,
2013-05-25 12:17:00,73.6,26.1,29.78,WSW,258,3.0,7.0,17,0.00,,SKC,0.00,VWS V14.00,2013-05-25 18:17:00,
2013-05-25 12:22:00,73.5,24.6,29.78,West,274,6.0,13.0,16,0.00,,SKC,0.00,VWS V14.00,2013-05-25 18:22:00,
2013-05-25 12:27:00,73.2,22.8,29.77,SW,221,2.0,13.0,15,0.00,,SKC,0.00,VWS V14.00,2013-05-25 18:27:00,
2013-05-25 12:33:00,73.5,23.1,29.77,West,262,5.0,8.0,15,0.00,,SKC,0.00,VWS V14.00,2013-05-25 18:33:00,
2013-05-25 12:38:00,74.1,26.5,29.76,South,184,3.0,13.0,17,0.00,,SKC,0.00,VWS V14.00,2013-05-25 18:38:00,
2013-05-25 12:43:00,74.9,25.7,29.76,South,185,4.0,13.0,16,0.00,,SKC,0.00,VWS V14.00,2013-05-25 18:43:00,
2013-05-25 12:48:00,75.3,22.9,29.76,SSW,198,9.0,13.0,14,0.00,,SKC,0.00,VWS V14.00,2013-05-25 18:48:00,
2013-05-25 12:53:00,74.6,25.5,29.76,SW,233,6.0,18.0,16,0.00,,SKC,0.00,VWS V14.00,2013-05-25 18:53:00,
2013-05-25 12:59:00,74.8,27.1,29.76,SSW,195,6.0,18.0,17,0.00,,SKC,0.00,VWS V14.00,2013-05-25 18:59:00,
2013-05-25 13:04:00,75.1,20.9,29.75,SE,140,1.0,6.0,13,0.00,,SKC,0.00,VWS V14.00,2013-05-25 19:04:00,
2013-05-25 13:09:00,75.5,23.0,29.75,SSW,196,0.0,6.0,14,0.00,,SKC,0.00,VWS V14.00,2013-05-25 19:09:00,
2013-05-25 13:14:00,75.8,27.9,29.75,South,190,5.0,8.0,17,0.00,,SKC,0.00,VWS V14.00,2013-05-25 19:14:00,
2013-05-25 13:20:00,75.9,29.4,29.75,SW,222,0.0,8.0,18,0.00,,SKC,0.00,VWS V14.00,2013-05-25 19:20:00,
2013-05-25 13:25:00,75.7,27.8,29.75,South,180,0.0,8.0,17,0.00,,SKC,0.00,VWS V14.00,2013-05-25 19:25:00,
2013-05-25 13:30:00,75.6,24.7,29.75,South,187,2.0,8.0,15,0.00,,SKC,0.00,VWS V14.00,2013-05-25 19:30:00,
2013-05-25 13:35:00,75.7,24.8,29.75,SSW,212,5.0,10.0,15,0.00,,SKC,0.00,VWS V14.00,2013-05-25 19:35:00,
2013-05-25 13:41:00,75.8,23.2,29.75,SSW,196,2.0,10.0,14,0.00,,SKC,0.00,VWS V14.00,2013-05-25 19:41:00,
2013-05-25 13:46:00,75.4,19.3,29.75,SE,132,4.0,10.0,12,0.00,,SKC,0.00,VWS V14.00,2013-05-25 19:46:00,
2013-05-25 13:51:00,75.5,21.3,29.74,South,181,3.0,11.0,13,0.00,,SKC,0.00,VWS V14.00,2013-05-25 19:51:00,
2013-05-25 13:56:00,76.1,21.7,29.74,SSW,197,1.0,11.0,13,0.00,,SKC,0.00,VWS V14.00,2013-05-25 19:56:00,
2013-05-25 14:01:00,76.5,27.0,29.74,WSW,257,3.0,11.0,16,0.00,,SKC,0.00,VWS V14.00,2013-05-25 20:01:00,
2013-05-25 14:07:00,76.7,27.2,29.74,SSW,192,1.0,8.0,16,0.00,,SKC,0.00,VWS V14.00,2013-05-25 20:07:00,
2013-05-25 14:12:00,76.7,22.2,29.74,SSW,192,4.0,8.0,13,0.00,,SKC,0.00,VWS V14.00,2013-05-25 20:12:00,
2013-05-25 14:17:00,76.7,30.0,29.73,WSW,244,7.0,8.0,18,0.00,,SKC,0.00,VWS V14.00,2013-05-25 20:17:00,
2013-05-25 14:22:00,76.5,22.0,29.73,SSW,194,0.0,12.0,13,0.00,,SKC,0.00,VWS V14.00,2013-05-25 20:22:00,
2013-05-25 14:27:00,76.7,24.0,29.73,WSW,255,0.0,12.0,14,0.00,,SKC,0.00,VWS V14.00,2013-05-25 20:27:00,
2013-05-25 14:33:00,77.0,24.2,29.73,SW,221,1.0,4.0,14,0.00,,SKC,0.00,VWS V14.00,2013-05-25 20:33:00,
2013-05-25 14:38:00,77.3,24.4,29.72,SW,223,2.0,4.0,14,0.00,,SKC,0.00,VWS V14.00,2013-05-25 20:38:00,
2013-05-25 14:43:00,77.6,22.9,29.73,South,188,6.0,12.0,13,0.00,,SKC,0.00,VWS V14.00,2013-05-25 20:43:00,
2013-05-25 14:48:00,77.5,24.6,29.73,SSE,159,6.0,12.0,14,0.00,,SKC,0.00,VWS V14.00,2013-05-25 20:48:00,
2013-05-25 14:54:00,77.5,26.2,29.73,West,265,7.0,12.0,15,0.00,,SKC,0.00,VWS V14.00,2013-05-25 20:54:00,
2013-05-25 14:59:00,77.6,19.0,29.72,SSE,153,2.0,12.0,11,0.00,,SKC,0.00,VWS V14.00,2013-05-25 20:59:00,
2013-05-25 15:04:00,77.9,19.2,29.72,SSE,164,4.0,5.0,11,0.00,,SKC,0.00,VWS V14.00,2013-05-25 21:04:00,
2013-05-25 15:09:00,78.1,21.4,29.72,SSW,207,3.0,7.0,12,0.00,,SKC,0.00,VWS V14.00,2013-05-25 21:09:00,
2013-05-25 15:14:00,78.1,19.4,29.72,ESE,117,8.0,14.0,11,0.00,,SKC,0.00,VWS V14.00,2013-05-25 21:14:00,
2013-05-25 15:20:00,78.1,25.1,29.71,NNE,25,0.0,14.0,14,0.00,,SKC,0.00,VWS V14.00,2013-05-25 21:20:00,
2013-05-25 15:25:00,78.3,21.6,29.70,WSW,246,2.0,14.0,12,0.00,,SKC,0.00,VWS V14.00,2013-05-25 21:25:00,
2013-05-25 15:30:00,78.7,23.8,29.71,SSW,192,2.0,14.0,13,0.00,,SKC,0.00,VWS V14.00,2013-05-25 21:30:00,
2013-05-25 15:35:00,78.9,20.0,29.70,South,170,0.0,6.0,11,0.00,,SKC,0.00,VWS V14.00,2013-05-25 21:35:00,
2013-05-25 15:41:00,79.4,29.3,29.70,SSW,207,5.0,7.0,16,0.00,,SKC,0.00,VWS V14.00,2013-05-25 21:41:00,
2013-05-25 15:46:00,79.8,20.7,29.70,South,187,4.0,10.0,11,0.00,,SKC,0.00,VWS V14.00,2013-05-25 21:46:00,
2013-05-25 15:51:00,79.6,26.3,29.70,West,267,0.0,15.0,14,0.00,,SKC,0.00,VWS V14.00,2013-05-25 21:51:00,
2013-05-25 15:56:00,79.6,24.5,29.70,South,184,6.0,15.0,13,0.00,,SKC,0.00,VWS V14.00,2013-05-25 21:56:00,
2013-05-25 16:02:00,79.4,22.4,29.69,SSW,192,2.0,15.0,12,0.00,,SKC,0.00,VWS V14.00,2013-05-25 22:02:00,
2013-05-25 16:07:00,79.5,22.5,29.70,SSW,193,6.0,12.0,12,0.00,,SKC,0.00,VWS V14.00,2013-05-25 22:07:00,
2013-05-25 16:12:00,79.3,20.3,29.70,South,183,8.0,12.0,11,0.00,,SKC,0.00,VWS V14.00,2013-05-25 22:12:00,
2013-05-25 16:17:00,79.3,20.3,29.69,South,188,3.0,14.0,11,0.00,,SKC,0.00,VWS V14.00,2013-05-25 22:17:00,
2013-05-25 16:22:00,79.5,20.4,29.69,SSW,198,6.0,14.0,11,0.00,,SKC,0.00,VWS V14.00,2013-05-25 22:22:00,
2013-05-25 16:28:00,79.5,18.2,29.69,SSE,155,1.0,14.0,10,0.00,,SKC,0.00,VWS V14.00,2013-05-25 22:28:00,
2013-05-25 16:33:00,79.6,18.3,29.68,SSW,198,5.0,11.0,10,0.00,,SKC,0.00,VWS V14.00,2013-05-25 22:33:00,
2013-05-25 16:38:00,79.7,18.4,29.68,SSW,196,5.0,12.0,10,0.00,,SKC,0.00,VWS V14.00,2013-05-25 22:38:00,
2013-05-25 16:43:00,79.5,15.8,29.68,South,183,3.0,15.0,9,0.00,,SKC,0.00,VWS V14.00,2013-05-25 22:43:00,
2013-05-25 16:49:00,79.7,18.4,29.69,SSW,212,3.0,16.0,10,0.00,,SKC,0.00,VWS V14.00,2013-05-25 22:49:00,
2013-05-25 16:54:00,79.6,18.3,29.68,South,180,0.0,16.0,10,0.00,,SKC,0.00,VWS V14.00,2013-05-25 22:54:00,
2013-05-25 16:59:00,79.3,18.1,29.68,SSE,159,11.0,16.0,10,0.00,,SKC,0.00,VWS V14.00,2013-05-25 22:59:00,
2013-05-25 17:04:00,79.3,15.6,29.68,SSW,193,4.0,13.0,9,0.00,,SKC,0.00,VWS V14.00,2013-05-25 23:04:00,
2013-05-25 17:10:00,79.2,15.6,29.68,South,178,14.0,25.0,9,0.00,,SKC,0.00,VWS V14.00,2013-05-25 23:10:00,
2013-05-25 17:15:00,79.4,22.4,29.68,West,261,2.0,25.0,12,0.00,,SKC,0.00,VWS V14.00,2013-05-25 23:15:00,
2013-05-25 17:20:00,79.7,26.3,29.67,South,172,1.0,25.0,14,0.00,,SKC,0.00,VWS V14.00,2013-05-25 23:20:00,
2013-05-25 17:25:00,79.6,20.5,29.67,WSW,256,4.0,25.0,11,0.00,,SKC,0.00,VWS V14.00,2013-05-25 23:25:00,
2013-05-25 17:31:00,79.5,22.5,29.67,West,269,1.0,25.0,12,0.00,,SKC,0.00,VWS V14.00,2013-05-25 23:31:00,
2013-05-25 17:36:00,79.2,18.0,29.68,SSE,167,8.0,11.0,10,0.00,,SKC,0.00,VWS V14.00,2013-05-25 23:36:00,
2013-05-25 17:41:00,78.8,22.0,29.67,SSE,157,4.0,11.0,12,0.00,,SKC,0.00,VWS V14.00,2013-05-25 23:41:00,
2013-05-25 17:46:00,78.4,21.6,29.67,SSW,199,3.0,11.0,12,0.00,,SKC,0.00,VWS V14.00,2013-05-25 23:46:00,
2013-05-25 17:51:00,78.2,21.5,29.67,SSW,213,1.0,11.0,12,0.00,,SKC,0.00,VWS V14.00,2013-05-25 23:51:00,
2013-05-25 17:57:00,77.9,21.2,29.67,SSW,202,2.0,11.0,12,0.00,,SKC,0.00,VWS V14.00,2013-05-25 23:57:00,
2013-05-25 18:02:00,77.5,22.8,29.67,NW,313,0.0,11.0,13,0.00,,SKC,0.00,VWS V14.00,2013-05-26 00:02:00,
2013-05-25 18:07:00,77.3,16.5,29.67,South,177,6.0,11.0,10,0.00,,SKC,0.00,VWS V14.00,2013-05-26 00:07:00,
2013-05-25 18:12:00,77.3,16.5,29.67,North,5,3.0,11.0,10,0.00,,SKC,0.00,VWS V14.00,2013-05-26 00:12:00,
2013-05-25 18:17:00,77.3,18.8,29.67,SW,220,3.0,11.0,11,0.00,,SKC,0.00,VWS V14.00,2013-05-26 00:17:00,
2013-05-25 18:23:00,77.2,20.7,29.67,South,184,3.0,11.0,12,0.00,,SKC,0.00,VWS V14.00,2013-05-26 00:23:00,
2013-05-25 18:28:00,77.3,18.8,29.67,South,186,3.0,11.0,11,0.00,,SKC,0.00,VWS V14.00,2013-05-26 00:28:00,
2013-05-25 18:33:00,77.7,23.0,29.67,West,277,0.0,4.0,13,0.00,,SKC,0.00,VWS V14.00,2013-05-26 00:33:00,
2013-05-25 18:38:00,78.1,21.4,29.67,SSW,198,5.0,7.0,12,0.00,,SKC,0.00,VWS V14.00,2013-05-26 00:38:00,
2013-05-25 18:44:00,77.9,19.2,29.67,SSE,148,8.0,8.0,11,0.00,,SKC,0.00,VWS V14.00,2013-05-26 00:44:00,
2013-05-25 18:49:00,77.7,19.0,29.67,SSE,159,0.0,10.0,11,0.00,,SKC,0.00,VWS V14.00,2013-05-26 00:49:00,
2013-05-25 18:54:00,77.5,18.9,29.67,WSW,242,0.0,10.0,11,0.00,,SKC,0.00,VWS V14.00,2013-05-26 00:54:00,
2013-05-25 18:59:00,77.2,18.7,29.67,SSE,153,5.0,10.0,11,0.00,,SKC,0.00,VWS V14.00,2013-05-26 00:59:00,
2013-05-25 19:04:00,77.1,16.4,29.67,SSW,213,1.0,9.0,10,0.00,,SKC,0.00,VWS V14.00,2013-05-26 01:04:00,
2013-05-25 19:10:00,77.1,20.6,29.67,SSE,163,0.0,9.0,12,0.00,,SKC,0.00,VWS V14.00,2013-05-26 01:10:00,
2013-05-25 19:15:00,76.9,22.4,29.67,SSE,150,4.0,9.0,13,0.00,,SKC,0.00,VWS V14.00,2013-05-26 01:15:00,
2013-05-25 19:20:00,76.6,25.5,29.67,South,188,0.0,9.0,15,0.00,,SKC,0.00,VWS V14.00,2013-05-26 01:20:00,
2013-05-25 19:25:00,76.1,29.6,29.67,South,188,0.0,9.0,18,0.00,,SKC,0.00,VWS V14.00,2013-05-26 01:25:00,
2013-05-25 19:31:00,75.8,19.6,29.67,South,184,0.0,9.0,12,0.00,,SKC,0.00,VWS V14.00,2013-05-26 01:31:00,
2013-05-25 19:36:00,75.5,32.9,29.67,SSW,208,0.0,6.0,21,0.00,,SKC,0.00,VWS V14.00,2013-05-26 01:36:00,
2013-05-25 19:41:00,74.3,29.4,29.67,SSW,208,0.0,6.0,19,0.00,,SKC,0.00,VWS V14.00,2013-05-26 01:41:00,
2013-05-25 19:46:00,73.2,28.5,29.67,SSW,208,0.0,6.0,19,0.00,,SKC,0.00,VWS V14.00,2013-05-26 01:46:00,
2013-05-25 19:51:00,72.0,34.3,29.67,NE,53,0.0,6.0,25,0.00,,SKC,0.00,VWS V14.00,2013-05-26 01:51:00,
2013-05-25 19:57:00,70.9,26.6,29.67,NE,53,0.0,6.0,19,0.00,,SKC,0.00,VWS V14.00,2013-05-26 01:57:00,
2013-05-25 20:02:00,70.2,39.0,29.67,NE,53,0.0,6.0,32,0.00,,SKC,0.00,VWS V14.00,2013-05-26 02:02:00,
2013-05-25 20:07:00,69.0,29.7,29.67,NE,53,0.0,4.0,23,0.00,,SKC,0.00,VWS V14.00,2013-05-26 02:07:00,
2013-05-25 20:12:00,68.0,33.7,29.67,ENE,70,0.0,5.0,28,0.00,,SKC,0.00,VWS V14.00,2013-05-26 02:12:00,
2013-05-25 20:18:00,67.4,31.4,29.67,ENE,70,3.0,5.0,26,0.00,,SKC,0.00,VWS V14.00,2013-05-26 02:18:00,
2013-05-25 20:23:00,66.7,32.6,29.67,ENE,67,3.0,5.0,28,0.00,,SKC,0.00,VWS V14.00,2013-05-26 02:23:00,
2013-05-25 20:28:00,66.1,35.4,29.68,ENE,67,0.0,5.0,32,0.00,,SKC,0.00,VWS V14.00,2013-05-26 02:28:00,
2013-05-25 20:33:00,65.4,35.6,29.68,NE,46,0.0,1.0,33,0.00,,SKC,0.00,VWS V14.00,2013-05-26 02:33:00,
2013-05-25 20:39:00,64.5,35.5,29.68,NE,46,0.0,1.0,34,0.00,,SKC,0.00,VWS V14.00,2013-05-26 02:39:00,
2013-05-25 20:44:00,63.5,36.8,29.68,NE,41,4.0,4.0,37,0.00,,SKC,0.00,VWS V14.00,2013-05-26 02:44:00,
2013-05-25 20:49:00,62.8,34.8,29.68,NE,38,3.0,5.0,35,0.00,,SKC,0.00,VWS V14.00,2013-05-26 02:49:00,
2013-05-25 20:54:00,62.0,36.1,29.68,NE,43,0.0,5.0,38,0.00,,SKC,0.00,VWS V14.00,2013-05-26 02:54:00,
2013-05-25 20:59:00,61.4,34.9,29.68,NE,51,0.0,5.0,37,0.00,,SKC,0.00,VWS V14.00,2013-05-26 02:59:00,
2013-05-25 21:05:00,61.0,33.2,29.68,NE,51,0.0,0.0,35,0.00,,SKC,0.00,VWS V14.00,2013-05-26 03:05:00,
2013-05-25 21:10:00,60.7,32.2,29.69,NE,51,0.0,2.0,34,0.00,,SKC,0.00,VWS V14.00,2013-05-26 03:10:00,
2013-05-25 21:15:00,60.4,31.2,29.69,NE,51,0.0,2.0,33,0.00,,SKC,0.00,VWS V14.00,2013-05-26 03:15:00,
2013-05-25 21:20:00,60.3,30.3,29.69,NE,51,2.0,3.0,32,0.00,,SKC,0.00,VWS V14.00,2013-05-26 03:20:00,
2013-05-25 21:26:00,59.7,32.0,29.69,NE,51,2.0,3.0,35,0.00,,SKC,0.00,VWS V14.00,2013-05-26 03:26:00,
2013-05-25 21:31:00,59.3,35.6,29.69,NE,51,1.0,3.0,41,0.00,,SKC,0.00,VWS V14.00,2013-05-26 03:31:00,
2013-05-25 21:36:00,58.7,32.5,29.70,NE,51,0.0,0.0,37,0.00,,SKC,0.00,VWS V14.00,2013-05-26 03:36:00,
2013-05-25 21:41:00,58.7,34.5,29.70,NE,51,0.0,4.0,40,0.00,,SKC,0.00,VWS V14.00,2013-05-26 03:41:00,
2013-05-25 21:46:00,58.4,29.4,29.70,NE,51,0.0,4.0,33,0.00,,SKC,0.00,VWS V14.00,2013-05-26 03:46:00,
2013-05-25 21:52:00,58.3,34.1,29.70,NE,51,0.0,4.0,40,0.00,,SKC,0.00,VWS V14.00,2013-05-26 03:52:00,
2013-05-25 21:57:00,58.1,31.3,29.71,NE,51,0.0,4.0,36,0.00,,SKC,0.00,VWS V14.00,2013-05-26 03:57:00,
2013-05-25 22:01:00,58.1,32.7,29.71,NE,51,0.0,4.0,38,0.00,,SKC,0.00,VWS V14.00,2013-05-26 04:01:00,
2013-05-25 22:02:00,58.0,32.6,29.71,NE,51,0.0,4.0,38,0.00,,SKC,0.00,VWS V14.00,2013-05-26 04:02:00,
2013-05-25 22:03:00,58.0,31.9,29.71,NE,51,0.0,0.0,37,0.00,,SKC,0.00,VWS V14.00,2013-05-26 04:03:00,
2013-05-25 22:04:00,58.0,31.2,29.71,NE,51,0.0,0.0,36,0.00,,SKC,0.00,VWS V14.00,2013-05-26 04:04:00,
2013-05-25 22:09:00,57.8,31.7,29.71,NE,51,0.0,2.0,37,0.00,,SKC,0.00,VWS V14.00,2013-05-26 04:09:00,
2013-05-25 22:14:00,57.6,30.9,29.71,NE,51,0.0,2.0,36,0.00,,SKC,0.00,VWS V14.00,2013-05-26 04:14:00,
2013-05-25 22:19:00,57.5,32.1,29.71,NE,51,0.0,2.0,38,0.00,,SKC,0.00,VWS V14.00,2013-05-26 04:19:00,
2013-05-25 22:25:00,57.0,32.3,29.71,NE,51,0.0,2.0,39,0.00,,SKC,0.00,VWS V14.00,2013-05-26 04:25:00,
2013-05-25 22:30:00,56.8,30.1,29.71,NE,51,0.0,2.0,36,0.00,,SKC,0.00,VWS V14.00,2013-05-26 04:30:00,
2013-05-25 22:35:00,56.7,29.4,29.71,NE,51,0.0,0.0,35,0.00,,SKC,0.00,VWS V14.00,2013-05-26 04:35:00,
2013-05-25 22:40:00,56.5,30.6,29.71,NE,51,0.0,2.0,37,0.00,,SKC,0.00,VWS V14.00,2013-05-26 04:40:00,
2013-05-25 22:45:00,56.4,29.8,29.71,NE,51,0.0,2.0,36,0.00,,SKC,0.00,VWS V14.00,2013-05-26 04:45:00,
2013-05-25 22:51:00,56.4,30.5,29.71,NE,51,0.0,2.0,37,0.00,,SKC,0.00,VWS V14.00,2013-05-26 04:51:00,
2013-05-25 22:56:00,56.4,32.4,29.72,NE,51,0.0,2.0,40,0.00,,SKC,0.00,VWS V14.00,2013-05-26 04:56:00,
2013-05-25 23:01:00,56.2,31.6,29.72,NE,51,0.0,2.0,39,0.00,,SKC,0.00,VWS V14.00,2013-05-26 05:01:00,
2013-05-25 23:06:00,56.0,32.0,29.72,NE,51,0.0,2.0,40,0.00,,SKC,0.00,VWS V14.00,2013-05-26 05:06:00,
2013-05-25 23:11:00,56.0,30.1,29.72,NE,51,0.0,3.0,37,0.00,,SKC,0.00,VWS V14.00,2013-05-26 05:11:00,
2013-05-25 23:17:00,55.9,30.7,29.72,NE,51,0.0,3.0,38,0.00,,SKC,0.00,VWS V14.00,2013-05-26 05:17:00,
2013-05-25 23:22:00,55.8,33.7,29.72,NE,51,0.0,3.0,43,0.00,,SKC,0.00,VWS V14.00,2013-05-26 05:22:00,
2013-05-25 23:27:00,55.6,31.7,29.72,NE,51,0.0,3.0,40,0.00,,SKC,0.00,VWS V14.00,2013-05-26 05:27:00,
2013-05-25 23:32:00,55.5,29.7,29.72,NE,51,2.0,2.0,37,0.00,,SKC,0.00,VWS V14.00,2013-05-26 05:32:00,
2013-05-25 23:38:00,55.4,30.9,29.72,NE,51,1.0,2.0,39,0.00,,SKC,0.00,VWS V14.00,2013-05-26 05:38:00,
2013-05-25 23:43:00,55.1,30.0,29.72,NE,51,0.0,2.0,38,0.00,,SKC,0.00,VWS V14.00,2013-05-26 05:43:00,
2013-05-25 23:48:00,54.8,31.0,29.72,NE,51,0.0,2.0,40,0.00,,SKC,0.00,VWS V14.00,2013-05-26 05:48:00,
2013-05-25 23:53:00,54.8,29.0,29.72,NE,51,0.0,2.0,37,0.00,,SKC,0.00,VWS V14.00,2013-05-26 05:53:00,
2013-05-25 23:59:00,54.6,29.5,29.72,NE,51,0.0,2.0,38,0.00,,SKC,0.00,VWS V14.00,2013-05-26 05:59:00,